Location: Allos
(44.2333°N, 6.6333°E)
Time: 04:12:21
(UTC+00:00)

Cosmos 2218 Rocket - Pass Details

Date: 01 December 2020
Orbit: 956 x 1005 km, 82.9° (Epoch: 24 January)

Event Time Altitude Azimuth Distance (km) Brightness Sun altitude
Rises 16:29:07 0° 356° (N) 3,648 6.8 -6.1°
Reaches altitude 10° 16:31:44 10° 3° (N) 2,697 6.1 -6.5°
Maximum altitude 16:37:40 47° 76° (ENE) 1,245 4.2 -7.5°
Drops below altitude 10° 16:43:34 10° 150° (SSE) 2,691 6.2 -8.5°
Sets 16:46:10 0° 156° (SSE) 3,638 7.0 -8.9°
